This is the latest recevied weather packets stored in our database for station/object KI5MKI. If no packets are shown the sender has not sent any weather packets the latest 10 day(s).
| Time | Temp. | Humidity | Pressure | Rain* | Wind** | Luminosity | Snow |
|---|---|---|---|---|---|---|---|
| 1778015036 | 27.78° C | 67% | 1005.7 hPa | 0 mm | - | 219 W/m² | - |
| 1778014733 | 29.44° C | 65% | 1005.6 hPa | 0 mm | - | 254 W/m² | - |
| 1778014431 | 28.89° C | 66% | 1005.5 hPa | 0 mm | - | 796 W/m² | - |
| 1778014128 | 29.44° C | 65% | 1005.5 hPa | 0 mm | - | 662 W/m² | - |
| 1778013826 | 29.44° C | 67% | 1005.5 hPa | 0 mm | - | 854 W/m² | - |
| 1778013522 | 28.89° C | 65% | 1005.5 hPa | 0 mm | - | 817 W/m² | - |
| 1778013219 | 28.89° C | 66% | 1005.5 hPa | 0 mm | - | 810 W/m² | - |
| 1778012915 | 28.33° C | 67% | 1005.6 hPa | 0 mm | - | 784 W/m² | - |
| 1778012612 | 27.22° C | 69% | 1005.7 hPa | 0 mm | - | 897 W/m² | - |
| 1778012308 | 27.22° C | 69% | 1005.8 hPa | 0 mm | - | 866 W/m² | - |
| 1778012006 | 27.78° C | 68% | 1005.8 hPa | 0 mm | - | 441 W/m² | - |
| 1778011704 | 27.78° C | 70% | 1005.8 hPa | 0 mm | - | 814 W/m² | - |
| 1778011401 | 27.78° C | 70% | 1005.8 hPa | 0 mm | - | 566 W/m² | - |
| 1778011096 | 27.78° C | 69% | 1006 hPa | 0 mm | - | 346 W/m² | - |
| 1778010794 | 27.78° C | 70% | 1005.7 hPa | 0 mm | - | 440 W/m² | - |
| 1778010491 | 27.78° C | 68% | 1005.7 hPa | 0 mm | - | 527 W/m² | - |
| 1778010188 | 27.22° C | 69% | 1005.8 hPa | 0 mm | - | 834 W/m² | - |
| 1778009883 | 27.78° C | 70% | 1006 hPa | 0 mm | - | 696 W/m² | - |
| 1778009581 | 27.22° C | 70% | 1005.8 hPa | 0 mm | - | 573 W/m² | - |
| 1778009279 | 26.67° C | 70% | 1005.9 hPa | 0 mm | - | 487 W/m² | - |
| 1778008977 | 27.22° C | 70% | 1006 hPa | 0 mm | - | 441 W/m² | - |
| 1778008674 | 26.67° C | 70% | 1005.9 hPa | 0 mm | - | 749 W/m² | - |
| 1778008373 | 26.67° C | 70% | 1006.2 hPa | 0 mm | - | 487 W/m² | - |
| 1778008068 | 26.11° C | 71% | 1006 hPa | 0 mm | - | 440 W/m² | - |
| 1778007763 | 26.67° C | 70% | 1006.1 hPa | 0 mm | - | 370 W/m² | - |
* Rain latest hour (hover to see other rain measurements)
** Current wind speed in m/s (hover to see current wind gust speed)